Saranac Lake, NY

11:30 PM EDT on March 24, 2017 (GMT -0400)
Adirondack Regional

Weather History for KSLK - March, 2011

Change the Weather History Date:

Wednesday, March 9, 2011

  Actual Average Record
Temperature  
Mean Temperature 16 °F 21 °F  
Max Temperature 35 °F 34 °F 62 °F (2016)
Min Temperature -2 °F 9 °F -27 °F (2007)
Degree Days  
Heating Degree Days 48 44  
Month to date heating degree days 407  
Since 1 July heating degree days 7112  
Cooling Degree Days 0 0  
Month to date cooling degree days 0  
Year to date cooling degree days 0  
Moisture  
Dew Point 13 °F    
Average Humidity 74    
Maximum Humidity 91    
Minimum Humidity 54    
Precipitation  
Precipitation 0.00 in 0.07 in 0.55 in (1961)
Month to date precipitation 0.49  
Year to date precipitation 4.23  
Sea Level Pressure  
Sea Level Pressure 30.48 in    
Wind  
Wind Speed 4 mph (SE)    
Max Wind Speed 15 mph    
Max Gust Speed 25 mph    
Visibility 9 miles    
Events Snow    
T = Trace of Precipitation, MM = Missing Value Source: NWS Daily Summary

Daily Weather History Graph

Daily Weather History Graph

Search for Another Location

Airport or City:

Trip Planner

Search our weather history database for the weather conditions in past years. The results will help you decide how hot, cold, wet, or windy it might be!

Date:

Astronomy

Mar. 09, 2011 Rise Set
Actual Time 6:20 AM EST 5:54 PM EST
Civil Twilight 5:51 AM EST 6:23 PM EST
Nautical Twilight 5:18 AM EST 6:57 PM EST
Astronomical Twilight 4:44 AM EST 7:31 PM EST
Moon 7:57 AM EST (3/9) 11:04 PM EST (3/9)
Length of Visible Light 12h 32m
Length of Day
11h 34m
Waxing Crescent, 20% of the Moon is Illuminated
Mar 9
Waxing Crescent
Mar 12
First Quarter
Mar 19
Full
Mar 26
Last Quarter
Apr 3
New

Hourly Weather History & Observations

Time (EST) Temp. Windchill Dew Point Humidity Pressure Visibility Wind Dir Wind Speed Gust Speed Precip Events Conditions
12:51 AM 1.0 °F - -0.9 °F 91% 30.63 in 10.0 mi Calm Calm - N/A   Mostly Cloudy
1:51 AM 3.9 °F - -0.0 °F 84% 30.61 in 10.0 mi Calm Calm - N/A   Clear
2:51 AM -2.0 °F - -5.1 °F 87% 30.60 in 10.0 mi Calm Calm - N/A   Clear
3:51 AM -2.9 °F - -6.0 °F 87% 30.60 in 10.0 mi Calm Calm - N/A   Clear
4:51 AM -0.9 °F - -5.1 °F 83% 30.61 in 10.0 mi Calm Calm - N/A   Clear
5:51 AM -0.9 °F - -5.1 °F 83% 30.61 in 10.0 mi Calm Calm - N/A   Clear
6:51 AM -0.9 °F - -4.0 °F 87% 30.61 in 10.0 mi Calm Calm - N/A   Clear
7:51 AM 8.1 °F - 5.0 °F 87% 30.61 in 10.0 mi Calm Calm - N/A   Clear
8:51 AM 19.0 °F 13.9 °F 12.0 °F 74% 30.61 in 10.0 mi NE 3.5 mph - N/A   Clear
9:51 AM 24.1 °F - 15.1 °F 69% 30.59 in 10.0 mi Calm Calm - N/A   Partly Cloudy
10:51 AM 27.0 °F - 18.0 °F 69% 30.57 in 10.0 mi Calm Calm - N/A   Mostly Cloudy
11:51 AM 32.0 °F 24.8 °F 23.0 °F 69% 30.55 in 5.0 mi ENE 8.1 mph - N/A   Haze
12:51 PM 33.1 °F 25.5 °F 23.0 °F 66% 30.51 in 10.0 mi NE 9.2 mph - N/A   Overcast
1:51 PM 33.1 °F 26.9 °F 23.0 °F 66% 30.48 in 10.0 mi East 6.9 mph - N/A   Mostly Cloudy
2:51 PM 33.1 °F 26.9 °F 25.0 °F 72% 30.47 in 10.0 mi East 6.9 mph - N/A   Mostly Cloudy
3:51 PM 35.1 °F - 19.9 °F 54% 30.45 in 10.0 mi Calm Calm - N/A   Overcast
4:51 PM 33.1 °F 23.4 °F 19.0 °F 56% 30.45 in 10.0 mi South 13.8 mph 20.7 mph N/A   Overcast
5:51 PM 32.0 °F 22.1 °F 21.9 °F 66% 30.42 in 10.0 mi SSE 13.8 mph - N/A   Overcast
6:51 PM 32.0 °F 22.1 °F 23.0 °F 69% 30.40 in 10.0 mi SSE 13.8 mph 21.9 mph N/A   Overcast
7:51 PM 30.9 °F 22.2 °F 24.1 °F 76% 30.37 in 10.0 mi SSE 10.4 mph - N/A   Overcast
8:51 PM 32.0 °F 22.1 °F 21.9 °F 66% 30.32 in 10.0 mi South 13.8 mph 24.2 mph N/A   Overcast
9:51 PM 32.0 °F 23.0 °F 21.0 °F 64% 30.29 in 10.0 mi SSE 11.5 mph 23.0 mph N/A   Overcast
10:51 PM 32.0 °F 23.0 °F 19.9 °F 61% 30.28 in 10.0 mi SSE 11.5 mph 25.3 mph 0.00 in   Overcast
11:44 PM 30.2 °F 19.3 °F 24.8 °F 80% 30.19 in 2.5 mi SSE 15.0 mph 19.6 mph 0.00 in Snow Light Snow
11:51 PM 30.0 °F 20.5 °F 24.1 °F 79% 30.26 in 2.5 mi SSE 11.5 mph - 0.00 in Snow Light Snow